Location: NCO
(38.4404°N, 77.1340°W)
Time: 06:10:20
(UTC-04:00)

OTV 5 (USA 277) - Visible Passes

Search period start: 15 October 2018 00:00
Search period end: 25 October 2018 00:00
Orbit: 387 x 394 km, 54.5° (Epoch: 08 September)

Date Brightness Start Highest point End Pass type
(mag) Time Alt. Az. Time Alt. Az. Time Alt. Az.
15 Oct ? 05:29:36 16° N 05:30:38 18° NNE 05:32:55 10° ENE visible
16 Oct ? 06:08:14 19° NW 06:10:23 68° NE 06:13:33 10° SE visible
17 Oct ? 05:14:34 27° ENE 05:14:34 27° ENE 05:16:45 10° E visible
17 Oct ? 06:47:11 10° WNW 06:49:42 21° SW 06:52:12 10° S visible
18 Oct ? 05:53:28 54° SW 05:53:28 54° SW 05:56:33 10° SSE visible
19 Oct ? 05:00:04 11° ESE 05:00:04 11° ESE 05:00:12 10° ESE visible
19 Oct ? 06:32:31 10° WSW 06:32:34 10° WSW 06:33:11 10° SW visible
21 Oct ? 19:38:11 10° SSE 19:38:24 11° SSE 19:38:24 11° SSE visible
22 Oct ? 20:16:00 10° SW 20:17:21 23° SW 20:17:21 23° SW visible
23 Oct ? 19:20:04 10° SSW 19:22:52 29° SE 19:23:43 25° E visible
23 Oct ? 20:56:08 10° W 20:56:08 10° W 20:56:08 10° W visible
24 Oct ? 19:59:08 10° WSW 20:02:14 49° NW 20:02:22 49° NNW visible
